Location: Bailleul
(50.3375°N, 2.8513°E)
Time: 07:06:16
(UTC+00:00)

Cosmos 2016 Rocket - Pass Details

Date: 25 October 2021
Orbit: 946 x 1001 km, 83.0° (Epoch: 29 November)

Event Time Altitude Azimuth Distance (km) Brightness Sun altitude
Exits shadow 18:03:33 14° 53° (NE) 2,444 5.6 -14.4°
Drops below altitude 10° 18:04:53 10° 41° (NE) 2,694 5.9 -14.6°
Sets 18:08:20 0° 22° (NNE) 3,638 6.8 -15.2°
